Anita, PA

6:17 PM EDT on July 29, 2016 (GMT -0400)
Du Bois-Jefferson County

Weather History for KDUJ - April, 2014

Change the Weather History Date:

Tuesday, April 22, 2014

  Actual Average Record
Temperature  
Mean Temperature 51 °F 49 °F  
Max Temperature 62 °F 60 °F 85 °F (1985)
Min Temperature 39 °F 38 °F 27 °F (1975)
Degree Days  
Heating Degree Days 14 16  
Month to date heating degree days 349 437  
Since 1 July heating degree days 6447 6395  
Cooling Degree Days 0 0  
Month to date cooling degree days 8 0  
Year to date cooling degree days 8 0  
Growing Degree Days 2 (Base 50)    
Moisture  
Dew Point 45 °F    
Average Humidity 65    
Maximum Humidity 100    
Minimum Humidity 30    
Precipitation  
Precipitation 0.27 in 0.11 in 0.58 in (2006)
Month to date precipitation 2.70 2.54  
Sea Level Pressure  
Sea Level Pressure 29.67 in    
Wind  
Wind Speed 10 mph (West)    
Max Wind Speed 23 mph    
Max Gust Speed 33 mph    
Visibility 7 miles    
Events Rain    
T = Trace of Precipitation, MM = Missing Value Source: NWS Daily Summary

Daily Weather History Graph

Daily Weather History Graph

Search for Another Location

Airport or City:

Trip Planner

Search our weather history database for the weather conditions in past years. The results will help you decide how hot, cold, wet, or windy it might be!

Date:

Astronomy

Apr. 22, 2014 Rise Set
Actual Time 6:25 AM EDT 8:03 PM EDT
Civil Twilight 5:56 AM EDT 8:32 PM EDT
Nautical Twilight 5:21 AM EDT 9:07 PM EDT
Astronomical Twilight 4:43 AM EDT 9:45 PM EDT
Moon 2:17 AM EDT (4/22) 12:58 PM EDT (4/22)
Length of Visible Light 14h 35m
Length of Day
13h 37m
Last Quarter, 46% of the Moon is Illuminated
Apr 22
Last Quarter
Apr 29
New
May 6
First Quarter
May 14
Full
May 21
Last Quarter

Hourly Weather History & Observations

Time (EDT) Temp. Windchill Dew Point Humidity Pressure Visibility Wind Dir Wind Speed Gust Speed Precip Events Conditions
12:56 AM 63.0 °F - 30.9 °F 30% 29.75 in 10.0 mi SSW 3.5 mph - N/A   Clear
1:56 AM 62.1 °F - 33.1 °F 34% 29.73 in 10.0 mi SW 6.9 mph - N/A   Clear
2:56 AM 60.1 °F - 36.0 °F 41% 29.71 in 10.0 mi SW 5.8 mph - N/A   Scattered Clouds
3:56 AM 60.1 °F - 37.9 °F 44% 29.70 in 10.0 mi WSW 10.4 mph - N/A   Overcast
4:56 AM 60.1 °F - 39.9 °F 47% 29.68 in 10.0 mi WSW 9.2 mph - N/A   Partly Cloudy
5:56 AM 59.0 °F - 41.0 °F 51% 29.67 in 10.0 mi West 6.9 mph - N/A   Clear
6:56 AM 57.0 °F - 42.1 °F 57% 29.67 in 10.0 mi SW 4.6 mph - N/A   Mostly Cloudy
7:56 AM 57.9 °F - 46.0 °F 65% 29.66 in 10.0 mi SW 3.5 mph - N/A   Overcast
8:56 AM 57.0 °F - 48.0 °F 72% 29.67 in 10.0 mi WSW 9.2 mph - 0.00 in   Overcast
9:12 AM 55.9 °F - 50.0 °F 80% 29.68 in 8.0 mi SW 5.8 mph - 0.01 in Rain Light Rain
9:56 AM 55.0 °F - 51.1 °F 86% 29.65 in 5.0 mi SW 8.1 mph - 0.05 in Rain Light Rain
10:17 AM 54.0 °F - 51.1 °F 90% 29.66 in 2.5 mi SW 9.2 mph - 0.04 in Rain Light Rain
10:29 AM 54.0 °F - 52.0 °F 93% 29.66 in 2.5 mi SW 11.5 mph - 0.05 in Rain Light Rain
10:40 AM 54.0 °F - 52.0 °F 93% 29.65 in 1.8 mi WSW 12.7 mph - 0.06 in Rain Light Rain
10:56 AM 54.0 °F - 53.1 °F 97% 29.64 in 1.5 mi SW 10.4 mph - 0.08 in Rain Light Rain
11:22 AM 55.0 °F - 53.1 °F 93% 29.66 in 3.0 mi SW 12.7 mph - 0.08 in Rain Light Rain
11:56 AM 55.9 °F - 53.1 °F 90% 29.64 in 3.0 mi WSW 10.4 mph - 0.08 in   Overcast
12:26 PM 55.9 °F - 54.0 °F 93% 29.65 in 4.0 mi West 12.7 mph - N/A   Overcast
12:33 PM 55.9 °F - 54.0 °F 93% 29.65 in 4.0 mi West 12.7 mph - N/A   Overcast
12:56 PM 57.0 °F - 54.0 °F 89% 29.62 in 5.0 mi WSW 13.8 mph - N/A   Overcast
1:36 PM 57.9 °F - 54.0 °F 87% 29.62 in 8.0 mi WSW 8.1 mph - N/A   Overcast
1:47 PM 59.0 °F - 54.0 °F 83% 29.62 in 8.0 mi WSW 8.1 mph - N/A   Overcast
1:56 PM 59.0 °F - 55.0 °F 87% 29.60 in 4.0 mi WNW 9.2 mph - 0.01 in Rain Light Rain
2:11 PM 57.0 °F - 53.1 °F 87% 29.62 in 2.5 mi WNW 12.7 mph - 0.03 in Rain Light Rain
2:20 PM 55.9 °F - 53.1 °F 90% 29.63 in 3.0 mi West 9.2 mph - 0.04 in Rain Light Rain
2:56 PM 57.0 °F - 54.0 °F 89% 29.60 in 7.0 mi WSW 8.1 mph - 0.04 in   Mostly Cloudy
3:16 PM 55.9 °F - 54.0 °F 93% 29.61 in 6.0 mi WSW 6.9 mph - N/A   Mostly Cloudy
3:26 PM 55.9 °F - 54.0 °F 93% 29.61 in 6.0 mi WSW 8.1 mph - N/A   Overcast
3:49 PM 57.0 °F - 54.0 °F 89% 29.61 in 6.0 mi West 8.1 mph - N/A   Mostly Cloudy
3:56 PM 57.9 °F - 55.0 °F 90% 29.59 in 6.0 mi West 5.8 mph - N/A   Overcast
4:56 PM 59.0 °F - 48.0 °F 67% 29.60 in 10.0 mi WNW 17.3 mph 25.3 mph N/A   Scattered Clouds
5:56 PM 51.1 °F - 42.1 °F 71% 29.65 in 10.0 mi NW 16.1 mph 26.5 mph N/A   Mostly Cloudy
6:56 PM 48.0 °F - 39.0 °F 71% 29.68 in 10.0 mi WNW 10.4 mph - N/A   Overcast
7:56 PM 45.0 °F 38.5 °F 35.1 °F 68% 29.70 in 10.0 mi WNW 13.8 mph 23.0 mph N/A   Mostly Cloudy
8:07 PM 45.0 °F 38.9 °F 34.0 °F 65% 29.71 in 10.0 mi WNW 12.7 mph 26.5 mph N/A   Mostly Cloudy
8:22 PM 44.1 °F 39.5 °F 34.0 °F 68% 29.71 in 10.0 mi NW 8.1 mph 21.9 mph N/A   Overcast
8:45 PM 44.1 °F 37.4 °F 34.0 °F 68% 29.72 in 10.0 mi WNW 13.8 mph 23.0 mph N/A   Overcast
8:56 PM 44.1 °F 38.1 °F 34.0 °F 68% 29.72 in 10.0 mi WNW 11.5 mph 19.6 mph N/A   Overcast
9:56 PM 43.0 °F 36.8 °F 33.1 °F 68% 29.75 in 10.0 mi NW 11.5 mph - N/A   Overcast
10:27 PM 42.1 °F 35.2 °F 33.1 °F 70% 29.74 in 10.0 mi NW 12.7 mph 25.3 mph N/A   Overcast
10:56 PM 42.1 °F 36.1 °F 34.0 °F 73% 29.74 in 10.0 mi WNW 10.4 mph 20.7 mph N/A   Overcast
11:56 PM 41.0 °F 33.1 °F 35.1 °F 79% 29.75 in 10.0 mi WNW 15.0 mph 23.0 mph N/A   Overcast